620  
ASUS41 KCLE 210502  
RWRCLE  
OHIO REGIONAL WEATHER ROUNDUP  
NATIONAL WEATHER SERVICE CLEVELAND, OH  
100 AM EDT THU SEP 21 2017  
 
NOTE: "FAIR" INDICATES FEW OR NO CLOUDS BELOW 12,000 FEET WITH NO  
SIGNIFICANT WEATHER AND/OR S TO VISIBILITY
.  
 
OHZ001>008-015>018-024>027-034-035-043-044-210600-  
NORTHWEST OHIO  
 
CITY SKY/WX TMP DP RH WIND PRES REMARKS
 
DEFIANCE CLEAR 68 65 90 CALM 30.02R  
FINDLAY CLEAR 70 63 78 CALM 30.02R  
TOLEDO EXPRESS CLEAR 66 66 100 CALM 30.03R FOG  
TOLEDO EXEC CLEAR 68 65 90 CALM 30.03R  
LIMA CLEAR 66 66 100 CALM 30.04R  

 
 
OHZ009>014-019>023-028>033-038-089-210600-  
NORTHEAST OHIO  
 
CITY SKY/WX TMP DP RH WIND PRES REMARKS
 
CLE-HOPKINS CLEAR 71 62 73 CALM 30.04S  
CLE-LAKEFRONT CLEAR 72 63 73 SE7 30.01S  
CUY CO. ARPT NOT AVBL  
LORAIN-ELYRIA CLEAR 63 57 81 CALM 30.04R  
ASHTABULA CLEAR 62 62 100 E5 30.05S  
AKRON-CANTON CLEAR 68 63 84 CALM 30.05S  
WOOSTER CLEAR 60 59 96 CALM 30.06R  
MANSFIELD CLEAR 67 65 93 S5 30.06R  
YOUNGSTOWN CLEAR 64 62 93 NE3 30.05S  

 
 
OHZ042-051>053-060>062-070>072-077>081-210600-  
SOUTHWEST OHIO  
 
CITY SKY/WX TMP DP RH WIND PRES REMARKS
 
CINC-COVINGTON CLEAR 71 70 96 S5 30.03S  
CINC-LUNKEN FOG 66 66 100 CALM 30.03S VSB 1/4  
HAMILTON CLEAR 65 65 100 CALM 30.04R FOG  
DAYTON CLEAR 68 65 90 CALM 30.05R  
WRIGHT-PAT AFB CLEAR 68 68 100 CALM 30.03R  
DAYTON GENERAL CLEAR 70 65 84 S3 30.03R  
WILMINGTON CLEAR 67 67 100 CALM 30.04S  

 
 
OHZ036-037-039>041-045>050-054>059-063>069-073>076-082>088-210600-  
CENTRAL AND SOUTHEAST OHIO  
 
CITY SKY/WX TMP DP RH WIND PRES REMARKS
 
COLUMBUS CLEAR 69 67 93 CALM 30.03S  
OSU AIRPORT CLEAR 67 67 100 CALM 30.04R  
BOLTON FIELD CLEAR 65 64 99 CALM 30.04S  
RICKENBACK AFB CLEAR 66 66 100 CALM 30.03S  
NEWARK FOG 65 64 97 CALM 30.04S VSB 1/4  
MARION CLEAR 66 63 90 CALM 30.05R  
LANCASTER CLEAR 63 63 100 CALM 30.04S FOG  
ZANESVILLE FOG 65 64 97 CALM 30.04S VSB 3/4  
NEW PHILLY NOT AVBL  

 
 
 
CLICK HERE TO GO TO PREVIOUS BULLETINS.

The Nexlab OH Page
The Nexlab PA Page Main Text Page